TimeCDT,TemperatureF,Dew PointF,Humidity,Sea Level PressureIn,VisibilityMPH,Wind Direction,Wind SpeedMPH,Gust SpeedMPH,PrecipitationIn,Events,Conditions,WindDirDegrees,DateUTC
12:51 AM,60.8,53.6,77,29.92,10.0,WNW,6.9,-,N/A,,Mostly Cloudy,300,2013-09-21 05:51:00
1:51 AM,59.0,53.6,82,29.92,10.0,WNW,6.9,-,N/A,,Scattered Clouds,300,2013-09-21 06:51:00
2:51 AM,57.2,53.6,88,29.91,10.0,WNW,8.1,-,N/A,,Partly Cloudy,290,2013-09-21 07:51:00
3:51 AM,57.2,53.6,88,29.91,10.0,WNW,8.1,-,N/A,,Clear,290,2013-09-21 08:51:00
4:51 AM,55.4,53.6,94,29.91,10.0,WNW,6.9,-,N/A,,Clear,290,2013-09-21 09:51:00
5:51 AM,55.4,53.6,94,29.93,10.0,WNW,6.9,-,N/A,,Clear,290,2013-09-21 10:51:00
6:51 AM,53.6,53.6,100,29.94,10.0,WNW,8.1,-,N/A,,Partly Cloudy,300,2013-09-21 11:51:00
7:51 AM,57.2,55.4,94,29.95,10.0,WNW,4.6,-,N/A,,Partly Cloudy,300,2013-09-21 12:51:00
8:51 AM,59.0,53.6,82,29.96,10.0,NW,12.7,-,N/A,,Partly Cloudy,320,2013-09-21 13:51:00
9:51 AM,60.8,48.2,63,29.97,10.0,NW,12.7,-,N/A,,Partly Cloudy,320,2013-09-21 14:51:00
10:51 AM,68.0,42.8,40,29.98,10.0,North,10.4,-,N/A,,Partly Cloudy,350,2013-09-21 15:51:00
11:51 AM,69.8,46.4,43,29.97,10.0,NNW,12.7,17.3,N/A,,Partly Cloudy,340,2013-09-21 16:51:00
12:51 PM,68.0,46.4,46,29.96,10.0,NW,15.0,-,N/A,,Partly Cloudy,320,2013-09-21 17:51:00
1:51 PM,69.8,50.0,49,29.94,10.0,NW,10.4,19.6,N/A,,Partly Cloudy,310,2013-09-21 18:51:00
2:51 PM,69.8,50.0,49,29.93,10.0,NW,11.5,-,N/A,,Partly Cloudy,310,2013-09-21 19:51:00
3:51 PM,69.8,48.2,46,29.92,10.0,NW,12.7,17.3,N/A,,Partly Cloudy,310,2013-09-21 20:51:00
4:51 PM,71.6,48.2,43,29.91,10.0,NW,10.4,-,N/A,,Partly Cloudy,320,2013-09-21 21:51:00
5:51 PM,71.6,48.2,43,29.92,10.0,NW,9.2,-,N/A,,Clear,310,2013-09-21 22:51:00
6:51 PM,68.0,50.0,52,29.91,10.0,WNW,8.1,-,N/A,,Clear,300,2013-09-21 23:51:00
7:51 PM,64.4,50.0,59,29.92,10.0,WNW,5.8,-,N/A,,Clear,300,2013-09-22 00:51:00
8:51 PM,64.4,50.0,59,29.94,10.0,WNW,4.6,-,N/A,,Clear,290,2013-09-22 01:51:00
9:51 PM,62.6,51.8,68,29.94,10.0,Calm,Calm,-,N/A,,Clear,0,2013-09-22 02:51:00
10:51 PM,59.0,51.8,77,29.94,10.0,Calm,Calm,-,N/A,,Clear,0,2013-09-22 03:51:00
11:51 PM,59.0,51.8,77,29.95,10.0,Calm,Calm,-,N/A,,Clear,0,2013-09-22 04:51:00